This demonstration page uses our WeatherBlox Daily Observations layout. Learn more.

38.89511, -77.03637

Hourly Observations for June 8, 2018

Temp ( °F °C ) Dew Point ( °F °C ) Humidity (%) Winds ( mph kmh ) Pressure ( in mb ) Visibility ( mi km ) Precip ( " mm )
12:52 am 00:52 Clear 67 19.4 62 16.7 84 84 S 6 9 30.15 1021 10 16.09344 0 0
1:52 am 01:52 Clear 67 19.4 61 16.1 81 81 S 8 13 30.12 1020 10 16.09344 0 0
2:52 am 02:52 Clear 66 18.9 61 16.1 84 84 SSW 3 6 30.15 1021 10 16.09344 0 0
3:52 am 03:52 Mostly Cloudy 66 18.9 59 15 78 78 S 5 7 30.15 1021 10 16.09344 0 0
4:52 am 04:52 Mostly Clear 65 18.3 60 15.6 84 84 S 3 6 30.15 1021 10 16.09344 0 0
5:52 am 05:52 Partly Cloudy 65 18.3 59 15 81 81 S 3 6 30.15 1021 10 16.09344 0 0
6:52 am 06:52 Mostly Cloudy 66 18.9 60 15.6 81 81 S 3 6 30.15 1021 10 16.09344 0 0
7:52 am 07:52 Mostly Cloudy 67 19.4 60 15.6 79 79 S 6 9 30.18 1022 10 16.09344 0 0
8:52 am 08:52 Mostly Cloudy 70 21.1 62 16.7 76 76 S 3 6 30.18 1022 10 16.09344 0 0
9:52 am 09:52 Mostly Cloudy 73 22.8 63 17.2 71 71 SSE 6 9 30.18 1022 10 16.09344 0 0
10:52 am 10:52 Cloudy 76 24.4 65 18.3 69 69 S 7 11 30.18 1022 10 16.09344 0 0
11:52 am 11:52 Cloudy 77 25 65 18.3 66 66 S 10 17 30.18 1022 10 16.09344 0 0
12:52 pm 12:52 Cloudy 79 26.1 66 18.9 65 65 S 9 15 30.15 1021 10 16.09344 0 0
1:52 pm 13:52 Cloudy 81 27.2 67 19.4 62 62 S 9 15 30.15 1021 10 16.09344 0 0
2:52 pm 14:52 Cloudy 83 28.3 66 18.9 57 57 S 9 15 30.12 1020 10 16.09344 0 0
3:52 pm 15:52 Cloudy 82 27.8 66 18.9 58 58 S 12 19 30.09 1019 10 16.09344 0 0
4:52 pm 16:52 Cloudy 82 27.8 67 19.4 60 60 S 12 19 30.09 1019 10 16.09344 0 0
5:52 pm 17:52 Cloudy 82 27.8 68 20 63 63 S 9 15 30.09 1019 10 16.09344 0 0
6:52 pm 18:52 Cloudy 81 27.2 68 20 65 65 S 6 9 30.09 1019 10 16.09344 0 0
7:52 pm 19:52 Cloudy 79 26.1 68 20 69 69 S 6 9 30.09 1019 10 16.09344 0 0
8:16 pm 20:16 Cloudy 79 26.1 68 20 69 69 S 5 7 30.12 1020 10 16.09344 0 0
8:52 pm 20:52 Mostly Cloudy 79 26.1 68 20 69 69 S 5 7 30.09 1019 10 16.09344 0 0
9:52 pm 21:52 Partly Cloudy 78 25.6 68 20 71 71 SE 6 9 30.12 1020 10 16.09344 0 0
10:30 pm 22:30 Cloudy with Thunderstorms 76 24.4 68 20 77 77 SSW 5 7 30.15 1021 10 16.09344 0 0
10:42 pm 22:42 Cloudy with Light Thunderstorms 77 25 69 20.6 77 77 N 3 6 30.15 1021 3 4.828032 0.06 1.524
10:52 pm 22:52 Cloudy with Heavy Thunderstorms 75 23.9 70 21.1 84 84 WNW 12 19 30.15 1021 1.5 2.414016 0.36 9.144
10:57 pm 22:57 Cloudy with Heavy Thunderstorms 75 23.9 66 18.9 74 74 WSW 10 17 30.15 1021 1 1.609344 0.16 4.064
11:09 pm 23:09 Cloudy with Light Thunderstorms 73 22.8 64 17.8 74 74 SE 13 20 30.15 1021 7 11.265408 0.59 14.986
11:22 pm 23:22 Mostly Cloudy 74 23.3 67 19.4 79 79 SSE 9 15 30.12 1020 10 16.09344 0.6 15.24
11:31 pm 23:31 Mostly Cloudy 74 23.3 67 19.4 79 79 S 7 11 30.12 1020 10 16.09344 0.6 15.24
11:52 pm 23:52 Mostly Cloudy 73 22.8 68 20 84 84 S 6 9 30.12 1020 10 16.09344 0.6 15.24

Powered by AerisWeather